EDW438 LSZH-LDSP

Flight info

Callsign EDW438
Flight time 1h 8m
Altitude 33000
Route DEGES Z2 XEBIX L607 ELMEM N606 GIRIS DCT NIVAS DCT BADOP DCT BABAG DCT PEVAL DCT MINTU DCT SAL
Aircraft A320/M-SDE2E3FGHIJ1RWXY/LB1

Departure

Time 2026-02-17 14:05
Airport Zürich Airport (LSZH)

Arrival

Time 2026-02-17 15:14
Airport Split Saint Jerome Airport (LDSP)
Time Latitude Longitude Altitude Speed Heading
2026-02-17 13:40 47.45600 8.55523 1397 ft 0 kts
2026-02-17 14:01 47.45617 8.55526 1405 ft 6 kts
2026-02-17 14:01 47.45652 8.55545 1397 ft 6 kts 54°
2026-02-17 14:01 47.45655 8.55634 1397 ft 11 kts 95°
2026-02-17 14:01 47.45646 8.55758 1400 ft 13 kts 96°
2026-02-17 14:02 47.45637 8.55878 1399 ft 11 kts 96°
2026-02-17 14:02 47.45628 8.56007 1397 ft 17 kts 96°
2026-02-17 14:02 47.45614 8.56185 1401 ft 17 kts 97°
2026-02-17 14:03 47.45779 8.56290 1402 ft 16 kts
2026-02-17 14:03 47.45875 8.56302 1402 ft 12 kts
2026-02-17 14:03 47.45948 8.56315 1403 ft 11 kts
2026-02-17 14:03 47.46022 8.56327 1407 ft 5 kts
2026-02-17 14:04 47.46087 8.56338 1401 ft 12 kts
2026-02-17 14:04 47.46174 8.56362 1406 ft 12 kts 13°
2026-02-17 14:04 47.46221 8.56323 1398 ft 1 kts 316°
2026-02-17 14:04 47.46280 8.56239 1401 ft 41 kts 317°
2026-02-17 14:05 47.46683 8.55690 1400 ft 112 kts 318°
2026-02-17 14:05 47.47399 8.54716 1402 ft 165 kts 315°
2026-02-17 14:05 47.48281 8.53527 1827 ft 174 kts 314°
2026-02-17 14:05 47.49189 8.52315 2612 ft 176 kts 312°
2026-02-17 14:06 47.50247 8.51243 3151 ft 193 kts 323°
2026-02-17 14:06 47.51440 8.50247 3778 ft 200 kts 324°
2026-02-17 14:06 47.52522 8.49037 4522 ft 194 kts 307°
2026-02-17 14:07 47.53514 8.45460 5773 ft 193 kts 272°
2026-02-17 14:07 47.53310 8.43495 6620 ft 195 kts 255°
2026-02-17 14:07 47.52747 8.41627 7394 ft 199 kts 250°
2026-02-17 14:07 47.52158 8.39769 8192 ft 201 kts 249°
2026-02-17 14:08 47.51281 8.38114 8941 ft 216 kts 221°
2026-02-17 14:08 47.49784 8.37467 9682 ft 242 kts 184°
2026-02-17 14:08 47.48116 8.38336 10167 ft 275 kts 152°
2026-02-17 14:08 47.46632 8.40338 10452 ft 307 kts 128°
2026-02-17 14:09 47.45756 8.43339 10716 ft 333 kts 102°
2026-02-17 14:09 47.45429 8.46838 10956 ft 356 kts 92°
2026-02-17 14:09 47.45372 8.50591 11311 ft 372 kts 87°
2026-02-17 14:09 47.45454 8.54449 11977 ft 378 kts 85°
2026-02-17 14:10 47.45626 8.58335 12716 ft 381 kts 82°
2026-02-17 14:10 47.45854 8.62259 13474 ft 385 kts 82°
2026-02-17 14:10 47.46083 8.66218 14186 ft 388 kts 82°
2026-02-17 14:11 47.46462 8.74254 15478 ft 396 kts 82°
2026-02-17 14:11 47.46619 8.78343 16125 ft 399 kts 82°
2026-02-17 14:11 47.46596 8.82481 16754 ft 408 kts 91°
2026-02-17 14:11 47.46109 8.86649 17382 ft 415 kts 99°
2026-02-17 14:12 47.45487 8.90774 17984 ft 420 kts 98°
2026-02-17 14:12 47.44854 8.95066 18522 ft 424 kts 97°
2026-02-17 14:12 47.44247 8.99293 19014 ft 429 kts 97°
2026-02-17 14:12 47.43633 9.03636 19498 ft 435 kts 96°
2026-02-17 14:13 47.43012 9.08032 19978 ft 440 kts 96°
2026-02-17 14:13 47.42380 9.12479 20462 ft 445 kts 96°
2026-02-17 14:13 47.41872 9.16995 20940 ft 445 kts 88°
2026-02-17 14:13 47.41783 9.21544 21422 ft 441 kts 78°
2026-02-17 14:14 47.42135 9.26006 21922 ft 435 kts 69°
2026-02-17 14:14 47.42805 9.30362 22406 ft 436 kts 66°
2026-02-17 14:14 47.43487 9.34751 22884 ft 440 kts 66°
2026-02-17 14:15 47.44835 9.43641 23780 ft 447 kts 66°
2026-02-17 14:15 47.45502 9.48125 23910 ft 448 kts 66°
2026-02-17 14:15 47.46168 9.52640 24344 ft 450 kts 66°
2026-02-17 14:15 47.46805 9.57176 24768 ft 456 kts 69°
2026-02-17 14:16 47.47092 9.61927 25159 ft 471 kts 79°
2026-02-17 14:16 47.46927 9.66825 25537 ft 482 kts 84°
2026-02-17 14:16 47.46649 9.71777 25903 ft 485 kts 84°
2026-02-17 14:16 47.46370 9.76763 26254 ft 487 kts 84°
2026-02-17 14:17 47.46094 9.81765 26613 ft 490 kts 84°
2026-02-17 14:17 47.45816 9.86799 26953 ft 493 kts 83°
2026-02-17 14:17 47.45537 9.91861 27290 ft 496 kts 83°
2026-02-17 14:17 47.45252 9.96955 27589 ft 499 kts 83°
2026-02-17 14:18 47.44962 10.02076 27926 ft 502 kts 83°
2026-02-17 14:18 47.44664 10.07241 28252 ft 506 kts 83°
2026-02-17 14:18 47.44357 10.12432 28594 ft 509 kts 83°
2026-02-17 14:19 47.44110 10.16553 28823 ft 512 kts 84°
2026-02-17 14:19 47.43538 10.21820 29069 ft 526 kts 90°
2026-02-17 14:19 47.42823 10.27135 29363 ft 529 kts 90°
2026-02-17 14:19 47.42065 10.32469 29660 ft 537 kts 94°
2026-02-17 14:20 47.40866 10.37779 29902 ft 553 kts 104°
2026-02-17 14:20 47.39084 10.42899 30129 ft 569 kts 115°
2026-02-17 14:20 47.36731 10.47650 30326 ft 579 kts 127°
2026-02-17 14:20 47.33862 10.51872 30583 ft 586 kts 138°
2026-02-17 14:21 47.30608 10.55368 30835 ft 587 kts 149°
2026-02-17 14:21 47.27042 10.58276 31190 ft 586 kts 153°
2026-02-17 14:21 47.23451 10.61119 31510 ft 585 kts 153°
2026-02-17 14:21 47.19826 10.63985 31759 ft 585 kts 154°
2026-02-17 14:22 47.16218 10.66587 32045 ft 583 kts 160°
2026-02-17 14:22 47.08611 10.70817 32620 ft 581 kts 163°
2026-02-17 14:23 47.01056 10.74947 32861 ft 577 kts 162°
2026-02-17 14:23 46.97360 10.76995 32837 ft 574 kts 162°
2026-02-17 14:23 46.89915 10.81199 32847 ft 573 kts 161°
2026-02-17 14:24 46.82510 10.85521 32843 ft 575 kts 156°
2026-02-17 14:24 46.75747 10.91674 32814 ft 572 kts 138°
2026-02-17 14:25 46.70217 10.99861 32817 ft 565 kts 127°
2026-02-17 14:25 46.64999 11.08402 32800 ft 564 kts 127°
2026-02-17 14:26 46.59766 11.16899 32798 ft 563 kts 127°
2026-02-17 14:27 46.51943 11.29588 32813 ft 561 kts 127°
2026-02-17 14:27 46.46743 11.38008 32828 ft 560 kts 127°
2026-02-17 14:28 46.41550 11.46386 32822 ft 558 kts 127°
2026-02-17 14:28 46.36358 11.54724 32814 ft 557 kts 128°
2026-02-17 14:29 46.31186 11.63007 32784 ft 553 kts 128°
2026-02-17 14:29 46.26027 11.71274 32783 ft 553 kts 128°
2026-02-17 14:30 46.20875 11.79487 32771 ft 550 kts 128°
2026-02-17 14:31 46.10612 11.95732 32763 ft 545 kts 128°
2026-02-17 14:31 46.05511 12.03803 32772 ft 544 kts 128°
2026-02-17 14:32 46.01277 12.10472 32773 ft 543 kts 128°
2026-02-17 14:32 45.95363 12.19750 32760 ft 541 kts 128°
2026-02-17 14:33 45.91102 12.26412 32763 ft 540 kts 128°
2026-02-17 14:33 45.83665 12.38469 32770 ft 536 kts 126°
2026-02-17 14:34 45.78868 12.46642 32771 ft 535 kts 126°
2026-02-17 14:35 45.71617 12.58789 32786 ft 534 kts 127°
2026-02-17 14:35 45.66739 12.66802 32789 ft 534 kts 127°
2026-02-17 14:36 45.61869 12.74792 32791 ft 533 kts 127°
2026-02-17 14:36 45.57004 12.82791 32790 ft 533 kts 127°
2026-02-17 14:37 45.52140 12.90769 32784 ft 533 kts 127°
2026-02-17 14:37 45.47260 12.98734 32784 ft 534 kts 127°
2026-02-17 14:38 45.42379 13.06698 32784 ft 534 kts 127°
2026-02-17 14:38 45.37521 13.14606 32788 ft 534 kts 128°
2026-02-17 14:39 45.30095 13.26452 32788 ft 535 kts 129°
2026-02-17 14:39 45.25034 13.34210 32785 ft 536 kts 130°
2026-02-17 14:40 45.19907 13.41893 32784 ft 536 kts 130°
2026-02-17 14:41 45.12275 13.53433 32782 ft 534 kts 130°
2026-02-17 14:41 45.07209 13.61127 32790 ft 533 kts 130°
2026-02-17 14:42 45.02158 13.68772 32795 ft 532 kts 130°
2026-02-17 14:42 44.97095 13.76381 32801 ft 530 kts 130°
2026-02-17 14:43 44.89518 13.87718 32803 ft 528 kts 130°
2026-02-17 14:43 44.84485 13.95228 32801 ft 527 kts 130°
2026-02-17 14:44 44.79457 14.02721 32797 ft 525 kts 130°
2026-02-17 14:44 44.74443 14.10190 32791 ft 524 kts 130°
2026-02-17 14:45 44.69433 14.17618 32791 ft 523 kts 131°
2026-02-17 14:45 44.64427 14.25017 32783 ft 522 kts 131°
2026-02-17 14:46 44.59423 14.32399 32790 ft 521 kts 131°
2026-02-17 14:47 44.51925 14.43413 32779 ft 520 kts 131°
2026-02-17 14:47 44.46932 14.50710 32293 ft 516 kts 131°
2026-02-17 14:47 44.44451 14.54340 31513 ft 516 kts 131°
2026-02-17 14:48 44.41975 14.57958 30890 ft 512 kts 131°
2026-02-17 14:48 44.39526 14.61527 30376 ft 506 kts 131°
2026-02-17 14:48 44.37097 14.65053 29871 ft 500 kts 131°
2026-02-17 14:48 44.34696 14.68528 29279 ft 495 kts 132°
2026-02-17 14:49 44.32155 14.71737 28716 ft 490 kts 138°
2026-02-17 14:49 44.29565 14.74802 28170 ft 484 kts 138°
2026-02-17 14:49 44.27044 14.77782 27630 ft 479 kts 138°
2026-02-17 14:49 44.24515 14.80769 27119 ft 474 kts 138°
2026-02-17 14:50 44.22012 14.83722 26600 ft 469 kts 138°
2026-02-17 14:50 44.19536 14.86642 26090 ft 464 kts 138°
2026-02-17 14:50 44.17090 14.89528 25590 ft 459 kts 138°
2026-02-17 14:51 44.12261 14.95211 24619 ft 450 kts 138°
2026-02-17 14:51 44.09877 14.98007 24138 ft 446 kts 138°
2026-02-17 14:51 44.07515 15.00775 23680 ft 442 kts 138°
2026-02-17 14:51 44.05171 15.03523 23214 ft 439 kts 138°
2026-02-17 14:52 44.02849 15.06239 22703 ft 434 kts 139°
2026-02-17 14:52 44.00547 15.08932 22232 ft 430 kts 139°
2026-02-17 14:52 43.98274 15.11586 21763 ft 425 kts 139°
2026-02-17 14:52 43.96018 15.14210 21308 ft 421 kts 139°
2026-02-17 14:53 43.93784 15.16803 20854 ft 417 kts 139°
2026-02-17 14:53 43.91580 15.19387 20413 ft 412 kts 139°
2026-02-17 14:53 43.89419 15.21969 19981 ft 408 kts 138°
2026-02-17 14:53 43.87287 15.24540 19543 ft 404 kts 138°
2026-02-17 14:54 43.85179 15.27093 19117 ft 401 kts 138°
2026-02-17 14:54 43.83089 15.29622 18703 ft 397 kts 139°
2026-02-17 14:54 43.81016 15.32118 18289 ft 392 kts 139°
2026-02-17 14:55 43.76953 15.36974 16579 ft 381 kts 139°
2026-02-17 14:55 43.74955 15.39352 15735 ft 377 kts 139°
2026-02-17 14:55 43.72974 15.41704 14928 ft 373 kts 139°
2026-02-17 14:55 43.71014 15.44029 14254 ft 372 kts 139°
2026-02-17 14:56 43.69063 15.46346 13870 ft 368 kts 138°
2026-02-17 14:56 43.67128 15.48643 13456 ft 366 kts 138°
2026-02-17 14:56 43.65204 15.50924 12991 ft 363 kts 138°
2026-02-17 14:56 43.63293 15.53188 12518 ft 361 kts 138°
2026-02-17 14:57 43.61391 15.55441 12035 ft 359 kts 138°
2026-02-17 14:57 43.59503 15.57678 11575 ft 357 kts 138°
2026-02-17 14:57 43.57623 15.59907 11104 ft 355 kts 138°
2026-02-17 14:57 43.55752 15.62124 10632 ft 354 kts 138°
2026-02-17 14:58 43.53891 15.64324 10218 ft 351 kts 138°
2026-02-17 14:58 43.52069 15.66467 10086 ft 338 kts 138°
2026-02-17 14:58 43.50305 15.68538 9947 ft 327 kts 138°
2026-02-17 14:59 43.46910 15.72521 9395 ft 317 kts 138°
2026-02-17 14:59 43.45260 15.74460 9023 ft 315 kts 137°
2026-02-17 14:59 43.43599 15.76417 8647 ft 313 kts 137°
2026-02-17 14:59 43.41799 15.78060 8269 ft 312 kts 159°
2026-02-17 15:00 43.39698 15.78613 7880 ft 306 kts 185°
2026-02-17 15:00 43.37663 15.77990 7458 ft 296 kts 211°
2026-02-17 15:00 43.36025 15.76404 7040 ft 284 kts 232°
2026-02-17 15:00 43.34603 15.74515 6600 ft 286 kts 228°
2026-02-17 15:01 43.33106 15.72717 6177 ft 286 kts 227°
2026-02-17 15:01 43.31611 15.70928 5749 ft 285 kts 226°
2026-02-17 15:01 43.30129 15.69133 5308 ft 284 kts 226°
2026-02-17 15:01 43.28654 15.67326 4891 ft 283 kts 226°
2026-02-17 15:02 43.27197 15.65520 4449 ft 282 kts 226°
2026-02-17 15:02 43.25586 15.64004 4129 ft 281 kts 205°
2026-02-17 15:02 43.23721 15.63445 3988 ft 271 kts 180°
2026-02-17 15:03 43.20389 15.65236 3340 ft 257 kts 130°
2026-02-17 15:03 43.19388 15.67179 3059 ft 244 kts 108°
2026-02-17 15:03 43.18964 15.69394 3037 ft 239 kts 88°
2026-02-17 15:03 43.19105 15.71615 3034 ft 232 kts 69°
2026-02-17 15:04 43.19755 15.73595 3036 ft 225 kts 53°
2026-02-17 15:04 43.20570 15.75425 3031 ft 225 kts 53°
2026-02-17 15:04 43.21376 15.77256 3031 ft 225 kts 53°
2026-02-17 15:04 43.22185 15.79093 3036 ft 225 kts 53°
2026-02-17 15:05 43.23031 15.80888 3038 ft 223 kts 47°
2026-02-17 15:05 43.24054 15.82455 3033 ft 219 kts 41°
2026-02-17 15:05 43.25124 15.83939 3025 ft 219 kts 41°
2026-02-17 15:05 43.26195 15.85429 3030 ft 219 kts 41°
2026-02-17 15:06 43.27259 15.86916 3024 ft 218 kts 41°
2026-02-17 15:06 43.28322 15.88403 3024 ft 218 kts 41°
2026-02-17 15:06 43.29387 15.89894 3024 ft 218 kts 41°
2026-02-17 15:07 43.31506 15.92865 3025 ft 217 kts 41°
2026-02-17 15:07 43.32558 15.94340 3025 ft 217 kts 41°
2026-02-17 15:07 43.33612 15.95815 3014 ft 216 kts 41°
2026-02-17 15:07 43.34665 15.97291 3015 ft 217 kts 41°
2026-02-17 15:08 43.35724 15.98774 3011 ft 217 kts 41°
2026-02-17 15:08 43.36781 16.00256 3012 ft 217 kts 41°
2026-02-17 15:08 43.37851 16.01696 3012 ft 215 kts 37°
2026-02-17 15:08 43.38919 16.03151 3011 ft 217 kts 43°
2026-02-17 15:09 43.39885 16.04753 3011 ft 218 kts 46°
2026-02-17 15:09 43.40813 16.06395 3012 ft 217 kts 47°
2026-02-17 15:09 43.41733 16.08036 3006 ft 213 kts 47°
2026-02-17 15:09 43.42602 16.09592 3009 ft 201 kts 46°
2026-02-17 15:10 43.43462 16.11122 3010 ft 202 kts 46°
2026-02-17 15:10 43.44298 16.12616 2924 ft 194 kts 46°
2026-02-17 15:10 43.45110 16.14064 2722 ft 191 kts 47°
2026-02-17 15:11 43.46620 16.16769 2266 ft 161 kts 46°
2026-02-17 15:11 43.47269 16.17931 2052 ft 144 kts 46°
2026-02-17 15:11 43.47859 16.18986 1842 ft 135 kts 46°
2026-02-17 15:11 43.48426 16.19996 1659 ft 133 kts 45°
2026-02-17 15:12 43.48983 16.20992 1474 ft 130 kts 46°
2026-02-17 15:12 43.49535 16.21982 1378 ft 129 kts 46°
2026-02-17 15:12 43.50085 16.22948 1227 ft 127 kts 44°
2026-02-17 15:12 43.50652 16.23948 951 ft 139 kts 50°
2026-02-17 15:13 43.51233 16.25023 830 ft 141 kts 45°
2026-02-17 15:13 43.51816 16.26069 658 ft 138 kts 47°
2026-02-17 15:13 43.52394 16.27110 420 ft 133 kts 45°
2026-02-17 15:13 43.52945 16.28091 210 ft 127 kts 47°
2026-02-17 15:14 43.53461 16.29010 84 ft 110 kts 51°
2026-02-17 15:14 43.53826 16.29668 72 ft 62 kts 52°
2026-02-17 15:14 43.53949 16.29890 63 ft 9 kts 52°
2026-02-17 15:15 43.54026 16.30102 59 ft 13 kts 152°
2026-02-17 15:15 43.53968 16.30085 58 ft 4 kts 197°
2026-02-17 15:15 43.53948 16.30077 62 ft 3 kts 197°
2026-02-17 15:15 43.53893 16.30033 64 ft 15 kts 227°
2026-02-17 15:16 43.53831 16.29930 64 ft 13 kts 232°
2026-02-17 15:16 43.53777 16.29834 59 ft 12 kts 235°
2026-02-17 15:16 43.53751 16.29781 63 ft 3 kts 236°
2026-02-17 15:16 43.53724 16.29746 66 ft 7 kts 185°
2026-02-17 15:17 43.53702 16.29790 63 ft 4 kts 114°
2026-02-17 15:17 43.53695 16.29809 65 ft 1 kts 115°
2026-02-17 15:17 43.53694 16.29811 65 ft 0 kts 115°